Overview Statistics Trail Chart Weather Telemetry Raw packets
 

This is the latest recevied weather packets stored in our database for station/object Ostrach. If no packets are shown the sender has not sent any weather packets the latest 10 day(s).

<< 15 16 17 18 19 20 >>
Time Temp. Humidity Pressure Rain* Wind** Luminosity Snow
1787952731 15.56° C 91% 1014.4 hPa 10.92 mm - - -
1787950930 15.56° C 90% 1014 hPa 10.92 mm - - -
1787949131 15.56° C 90% 1013.9 hPa 10.92 mm - - -
1787947331 15.56° C 90% 1013.3 hPa 10.92 mm - - -
1787945534 16.11° C 90% 1013.5 hPa 10.92 mm - - -
1787943732 16.11° C 91% 1013.3 hPa 10.92 mm - - -
1787941930 16.11° C 91% 1012.3 hPa 10.41 mm - - -
1787940131 16.67° C 90% 1012.2 hPa 9.65 mm - - -
1787938334 17.22° C 91% 1011.9 hPa 9.4 mm - - -
1787936532 17.22° C 90% 1011.5 hPa 8.89 mm - - -
1787934731 17.78° C 88% 1011.3 hPa 7.87 mm - - -
1787932931 18.89° C 85% 1011 hPa 3.81 mm - - -
1787931130 19.44° C 84% 1010.4 hPa 3.81 mm - - -
1787929330 20° C 81% 1010.3 hPa 3.81 mm - - -
1787927530 18.89° C 86% 1010.8 hPa 3.81 mm - - -
1787925730 18.89° C 88% 1010.8 hPa 3.81 mm - - -
1787923930 18.33° C 89% 1010.6 hPa 2.79 mm - - -
1787922130 18.89° C 85% 1011 hPa 1.52 mm - - -
1787920330 19.44° C 82% 1010.7 hPa 1.52 mm - - -
1787918530 20° C 85% 1010.3 hPa 1.52 mm - - -
1787916730 20.56° C 83% 1010.9 hPa 1.27 mm - - -
1787914930 21.11° C 87% 1010 hPa 1.27 mm - - -
1787913130 20° C 85% 1010 hPa 0.25 mm - - -
1787911331 18.89° C 85% 1009.4 hPa 0.25 mm - - -
1787909530 19.44° C 84% 1009.6 hPa 0.25 mm - - -

* Rain since midnight (hover to see other rain measurements)
** Current wind speed in m/s (hover to see current wind gust speed)